INTELSAT 39 (IS-39)

Last updated on Mon Sep 14 2026 00:03:00 GMT+0000 (Coordinated Universal Time)

1 44476U 19049B 26256.09058998 .00000021 00000+0 00000+0 0 9998 2 44476 0.0146 209.7619 0000734 254.2476 342.6400 1.00273277 26002
UTC large
Height (km)
Speed (km/s)
/
Latitude / Longitude
Inclination (degrees)
Orbital Period (minutes)
Azimuth
Elevation
Range (km)
Doppler Factor

Next 0 passes for location: London (51.5072 / 0.1276)

No passes found over London.
INTELSAT 39 (IS-39)